Location: Unspecified
(41.5000°N, 0.0000°E)
Time: 20:11:38
(UTC+00:00)

Vanguard 3 - Pass Details

Date: 23 June 2019
Orbit: 508 x 3263 km, 33.3° (Epoch: 21 August)

Event Time Altitude Azimuth Distance (km) Brightness Sun altitude
Rises 10:43:23 0° 234° (SW) 6,720 11.8 65.6°
Reaches altitude 10° 10:48:43 10° 228° (SW) 5,347 11.4 66.3°
Maximum altitude 11:01:44 41° 166° (SSE) 2,450 10.8 68.0°
Drops below altitude 10° 11:09:33 10° 100° (E) 3,247 10.6 68.8°
Sets 11:11:59 0° 92° (E) 3,922 10.8 69.1°
